Overview Statistics Trail Chart Weather Telemetry Raw packets
 

This is the latest recevied weather packets stored in our database for station/object KL7AF. If no packets are shown the sender has not sent any weather packets the latest 10 day(s).

<< 11 12 13 14 15 16 17 >>
Time Temp. Humidity Pressure Rain* Wind** Luminosity Snow
1788536191 32.78° C 67% 1078 hPa 0 mm - 665 W/m² -
1788535891 32.22° C 68% 1078.1 hPa 0 mm - 639 W/m² -
1788535591 32.22° C 69% 1078.1 hPa 0 mm - 631 W/m² -
1788535290 32.22° C 70% 1078.1 hPa 0 mm - 616 W/m² -
1788534990 31.67° C 69% 1078.2 hPa 0 mm - 619 W/m² -
1788534689 31.11° C 71% 1078.3 hPa 0 mm - 600 W/m² -
1788534388 30.56° C 72% 1078.4 hPa 0 mm - 592 W/m² -
1788534087 30.56° C 75% 1078.4 hPa 0 mm - 575 W/m² -
1788533787 30° C 74% 1078.4 hPa 0 mm - 563 W/m² -
1788533486 30° C 75% 1078.4 hPa 0 mm - 544 W/m² -
1788533186 29.44° C 76% 1017.9 hPa 0 mm - 57 W/m² -
1788532885 29.44° C 80% 1078.4 hPa 0 mm - 55 W/m² -
1788532585 29.44° C 79% 1078.4 hPa 0 mm - 52 W/m² -
1788532285 28.89° C 79% 1078.4 hPa 0 mm - 51 W/m² -
1788531984 28.89° C 80% 1078.4 hPa 0 mm - 48 W/m² -
1788531683 28.89° C 82% 1078.4 hPa 0 mm - 47 W/m² -
1788531382 28.33° C 81% 1078.5 hPa 0 mm - 47 W/m² -
1788531082 27.78° C 82% 1078.6 hPa 0 mm - 45 W/m² -
1788530781 27.78° C 86% 1078.5 hPa 0 mm - 41 W/m² -
1788530481 27.22° C 86% 1078.5 hPa 0 mm - 39 W/m² -
1788530180 27.22° C 87% 1078.5 hPa 0 mm - 37 W/m² -
1788529880 26.67° C 89% 1078.5 hPa 0 mm - 35 W/m² -
1788529579 26.67° C 90% 1078.5 hPa 0 mm - 34 W/m² -
1788529278 26.11° C 90% 1078.6 hPa 0 mm - 32 W/m² -
1788528977 26.11° C 94% 1078.4 hPa 0 mm - 31 W/m² -

* Rain latest hour (hover to see other rain measurements)
** Current wind speed in m/s (hover to see current wind gust speed)